Location: Makanda
(37.6176°N, 89.2090°W)
Time: 01:56:59
(UTC+00:00)

Cosmos 2369 Rocket - Pass Details

Date: 23 September 2019
Orbit: 830 x 851 km, 71.0° (Epoch: 18 October)

Event Time Altitude Azimuth Distance (km) Brightness Sun altitude
Exits shadow 08:10:26 19° 17° (NNE) 1,900 4.4 -40.3°
Drops below altitude 10° 08:11:59 10° 19° (NNE) 2,473 5.2 -40.1°
Sets 08:14:27 0° 21° (NNE) 3,409 6.0 -39.7°
